Regional Weather Roundup
Issued by NWS

Home | Current Version | Previous Version | Graphics & Text | Print | Product List | Glossary On
Versions: 1 2 3 4 5 6 7 8 9 10 11 12 13 14 15 16 17 18 19 20 21 22 23 24 25 26 27 28 29 30 31 32 33 34 35 36 37 38 39 40 41 42 43 44 45 46 47 48 49 50
914
ASUS45 KCYS 300710
RWRWY

WYOMING REGIONAL WEATHER ROUNDUP
NATIONAL WEATHER SERVICE CHEYENNE WY
100 AM MDT FRI SEP 30 2016

NOTE:  "FAIR" INDICATES FEW OR NO CLOUDS BELOW 12,000 FEET
WITH NO SIGNIFICANT WEATHER AND/OR OBSTRUCTIONS TO VISIBILITY.

WYZ001-300800-
YELLOWSTONE NATIONAL PARK

CITY           SKY/WX    TMP DP  RH WIND       PRES   REMARKS
LK YELLOWSTONE   N/A     42  40  92 CALM      30.38F
W YELLOWSTONE  NOT AVBL

$$
WYZ002>013-054>058-071-098>099-300800-
NORTHERN WYOMING

CITY           SKY/WX    TMP DP  RH WIND       PRES   REMARKS
JACKSON        MOCLDY    43  43 100 CALM      30.33S
CODY           FAIR      61  43  51 SW7       30.16F
GREYBULL       FAIR      61  54  77 SE8       30.10F
WORLAND        FAIR      55  49  80 S3        30.13F
SHERIDAN       FAIR      60  49  66 CALM      30.07S
BUFFALO        FAIR      60  44  55 NW7       30.12F
GILLETTE       FAIR      60  49  66 S10       30.12F
HULETT         FAIR      70  45  40 S12G18    30.16S
NEWCASTLE      FAIR      64  41  42 SE10G16   30.19F

$$
WYZ014>020-022>026-101>103-300800-
CENTRAL WYOMING

CITY           SKY/WX    TMP DP  RH WIND       PRES   REMARKS
BIG PINEY      FAIR      42  39  89 N9        30.34F
PINEDALE       FAIR      37  37 100 NW6       30.35F WCI  33
DUBOIS         CLOUDY    43  39  87 W6        30.31F
LANDER         FAIR      54  46  74 S3        30.22F
RIVERTON       FAIR      53  49  86 CALM      30.23S
CASPER         FAIR      60  47  61 SW12G17   30.23F
DOUGLAS        FAIR      54  45  71 NE6       30.22F

$$
WYZ021-027>030-104>119-300800-
SOUTHERN WYOMING

CITY           SKY/WX    TMP DP  RH WIND       PRES   REMARKS
EVANSTON       FAIR      51  41  68 S6        30.35F
FORT BRIDGER   SUNNY     50  41  71 W8        30.37F
ROCK SPRINGS   FAIR      54  43  66 CALM      30.32F
DIXON          FAIR      58  47  68 S10       30.38S
RAWLINS        FAIR      54  46  74 S6        30.33F
SARATOGA       FAIR      45  43  93 W8        30.37S
LARAMIE        MOCLDY    50  44  80 S5        30.35F
CHEYENNE       FAIR      54  40  59 CALM      30.27F
TORRINGTON     FAIR      55  41  59 E12       30.19F
PINE BLUFFS    FAIR      54  39  58 CALM      30.25S

$$




USA.gov is the U.S. government's official web portal to all federal, state and local government web resources and services.